Location: Counenguiou
(44.3333°N, 6.6500°E)
Time: 02:13:24
(UTC+00:00)

Daily predictions for brighter satellites

Satellite Brightness Start Highest point End
(mag) Time Altitude Azimuth Time Altitude Azimuth Time Altitude Azimuth
CENTAUR R/B 4.5 02:43:36 24° ENE 02:43:36 24° ENE 02:46:24 10° NE
Cosmos 2369 Rocket 4.3 03:05:39 21° ESE 03:06:18 21° E 03:10:24 10° NE
Cosmos 1943 Rocket 4.0 03:30:59 24° NNE 03:30:59 24° NNE 03:33:11 10° NNE
USA 238 DEB 4.1 03:34:57 56° NE 03:34:57 56° NE 03:40:13 10° NE
USA 238 4.0 03:35:01 56° NE 03:35:01 56° NE 03:40:19 10° NE
USA 215 4.0 03:37:23 10° E 03:43:23 41° NNE 03:44:01 40° N
BREEZE-M DEB (TANK) 3.4 03:59:21 69° SE 03:59:21 69° SE 04:09:05 10° ESE
NOSS 3-3 (A) 4.5 04:06:37 63° W 04:07:10 64° WSW 04:15:35 10° SSE
NOSS 3-3 (C) 4.5 04:06:41 63° W 04:07:16 64° WSW 04:15:41 10° SSE
COSMO-SKYMED 1 3.4 04:18:52 10° SE 04:23:02 48° ENE 04:24:46 31° NNE
Meteor 2-3 Rocket 4.3 04:27:08 41° NNW 04:27:08 41° NNW 04:31:02 10° N
Cosmos 1812 3.6 04:29:57 43° SSE 04:29:57 43° SSE 04:32:38 10° SSE
CENTAUR R/B 3.0 04:30:49 43° NW 04:30:49 43° NW 04:37:33 10° NNE
Cosmos 1634 Rocket 3.8 04:30:38 12° NNW 04:36:31 75° W 04:42:43 10° S
Cosmos 1486 Rocket 3.9 04:36:22 22° SSW 04:39:50 78° WNW 04:45:09 10° NNE
Cosmos 2263 4.2 04:34:54 10° SSW 04:40:36 88° ESE 04:46:23 10° NNE
Meteor 1-26 Rocket 4.4 04:43:21 48° WNW 04:43:58 50° W 04:49:29 10° SSW
Cosmos 2344 4.0 04:44:25 34° NW 04:45:45 37° NW 04:53:09 10° NNE
SKYMED 3 4.5 04:42:46 10° SSE 04:47:06 88° ENE 04:49:09 31° NNW
Tsikada Rocket 4.2 04:46:12 39° WSW 04:47:25 43° WNW 04:53:24 10° N
NOSS 3-2 (A) 4.3 04:48:00 29° NNW 04:48:03 29° NNW 04:53:46 10° NNE
Cosmos 2369 Rocket 2.1 04:47:36 35° SW 04:49:49 59° WNW 04:55:23 10° NNE
CZ-4B R/B 4.1 04:48:10 10° NNE 04:52:39 83° ESE 04:57:07 10° SSW
Meteor 1-31 Rocket 2.7 04:51:20 10° NNE 04:55:15 86° ESE 04:59:10 10° SSW
BREEZE-M DEB (TANK) 4.3 04:39:51 10° SW 04:55:50 60° SSE 04:59:56 10° ENE
SAR-Lupe-3 4.4 04:52:17 10° NNE 04:55:53 88° WNW 04:59:29 10° SSW
NOSS 3-2 (C) 3.8 04:55:42 36° WNW 04:56:38 38° NW 05:02:44 10° NNE
SJ 16-02 3.2 04:53:09 10° SSE 04:57:02 32° E 05:00:55 10° NE
H-2A R/B 3.6 04:55:39 10° N 05:00:50 32° SW 05:03:00 10° SSW
ATLAS 3B R/B 4.1 04:54:14 10° S 05:00:07 38° ESE 05:06:15 10° NE
Landsat 5 3.6 04:56:18 10° SSE 05:00:49 88° WSW 05:04:30 15° NNW
SL-27 R/B 3.8 04:58:53 17° N 05:01:14 39° ENE 05:04:34 10° SE
Cosmos 1656 Rocket 3.5 04:56:11 10° SW 05:01:32 64° WNW 05:06:58 10° NNE
Envisat 2.9 04:56:37 10° N 05:01:40 68° WNW 05:06:42 10° SSW
Cosmos 968 Rocket 4.4 05:06:20 28° NW 05:06:20 28° NW 05:09:56 10° N
Meteor 2-8 Rocket 4.4 05:01:51 10° N 05:08:02 84° W 05:14:08 10° S
Cosmos 2180 Rocket 4.4 05:02:24 10° N 05:08:36 86° W 05:14:44 10° S
Cosmos 2098 Rocket 3.3 05:05:33 10° SSW 05:09:23 45° WNW 05:14:15 10° N
Cosmos 1862 3.4 05:07:00 10° SSW 05:10:49 49° WNW 05:14:40 10° N
SKYMED 2 3.7 05:06:52 10° S 05:11:06 51° W 05:13:22 25° NW
CZ-2C R/B 2.7 05:05:50 10° S 05:11:13 58° W 05:16:32 10° NNW
Cosmos 1943 Rocket 3.5 05:12:33 21° NW 05:12:33 21° NW 05:16:09 10° N
Cosmos 921 Rocket 4.3 05:16:00 24° WSW 05:16:00 24° WSW 05:18:56 10° SSW
SL-8 R/B 3.7 05:15:27 31° WNW 05:17:42 76° SSW 05:22:28 10° ESE
DELTA 2 R/B (1) 4.2 05:15:49 18° WSW 05:19:44 51° S 05:25:05 10° E
USA 215 3.2 05:19:29 10° SE 05:26:03 86° SW 05:31:22 17° NW
H-2A R/B 2.8 05:22:55 10° SSE 05:27:04 53° ENE 05:31:20 10° N
Cosmos 1151 Rocket 3.9 05:28:45 24° WNW 05:30:01 28° W 05:33:44 10° SSW
Cosmos 1354 Rocket 4.1 05:28:52 10° SW 05:34:01 55° WNW 05:39:15 10° NNE
Okean 3 Rocket 4.2 05:30:03 10° SW 05:34:11 34° WNW 05:38:21 10° N
CZ-4B R/B 3.3 05:35:38 10° SE 05:38:34 30° ENE 05:41:28 10° N
CZ-4B R/B 2.5 05:36:11 10° NNE 05:39:45 89° NW 05:43:21 10° SSW
NOAA 11 4.1 05:34:31 10° N 05:39:59 70° WNW 05:45:26 10° SSW
Cosmos 1766 Rocket 4.5 05:36:58 10° SW 05:40:35 25° WNW 05:44:12 10° NNW
ADEOS 3.6 05:37:12 10° N 05:42:21 59° WNW 05:47:27 10° SSW
Lacrosse 4 Rocket 4.2 05:45:54 10° NNE 05:47:10 11° NE 05:48:26 10° NE
Meteor 1-27 Rocket 3.7 05:42:58 10° NNW 05:48:35 68° W 05:54:17 10° S
CZ-2C R/B 3.0 05:53:06 10° N 05:57:54 60° WNW 06:02:55 10° SSW
ATLAS 5 CENTAUR R/B 1.2 05:55:30 10° SW 05:59:17 67° NW 06:03:34 10° NNE
COSMO-SKYMED 1 4.1 05:56:41 10° SW 05:59:28 17° W 06:01:59 11° NW
Cosmos 1340 Rocket 2.8 05:57:04 10° SSW 06:00:56 55° WNW 06:04:53 10° N
BREEZE-M DEB (TANK) 4.2 05:50:01 12° WNW 06:00:59 61° SW 06:04:36 10° SE
Cosmos 1500 4.0 05:58:03 10° S 06:01:47 55° E 06:05:31 10° NNE
CZ-4C R/B 4.4 06:00:14 10° SW 06:02:23 17° W 06:04:09 12° WNW
Cosmos 1538 Rocket 4.0 05:57:36 10° NNW 06:02:52 89° WSW 06:08:03 10° SSE
Meteor PRIRODA 4.2 06:02:41 10° N 06:06:01 35° WNW 06:09:21 10° SW
Cosmos 1607 4.3 06:00:26 10° NNW 06:06:40 65° NE 06:12:45 10° SE
PSLV R/B 4.4 06:03:34 10° SSE 06:07:34 63° ENE 06:11:39 10° N
COSMOS 2487 2.3 06:07:56 10° NNW 06:11:17 71° WSW 06:14:35 10° SSE
Cosmos 1515 3.7 06:08:08 10° NNW 06:11:53 58° W 06:15:36 10° S
H-2A R/B 2.8 06:07:33 10° NNE 06:12:22 54° E 06:17:12 10° S
Nadezhda 4 Rocket 4.3 06:07:28 10° SSW 06:13:18 43° WNW 06:19:14 10° N
Cosmos 1939 Rocket 3.0 06:12:55 10° N 06:16:42 47° WNW 06:20:25 10° SSW
Meteor 1-25 Rocket 4.2 06:11:43 10° SSW 06:17:20 73° WNW 06:22:55 10° N
Cosmos 2228 Rocket 3.2 06:16:07 10° NNW 06:20:33 59° W 06:25:00 10° S
USA 32 4.3 06:17:27 10° NNW 06:22:31 51° W 06:27:34 10° SSW
Cosmos 1743 Rocket 4.1 06:18:51 10° SW 06:22:53 35° WNW 06:26:53 10° N
EO 1 Delta rocket 4.3 06:16:36 10° N 06:23:04 74° WNW 06:28:12 10° SSW
CENTAUR R/B 4.2 06:18:52 10° WNW 06:23:35 19° NNW 06:28:52 10° NNE
Cosmos 1680 Rocket 4.5 06:18:58 10° N 06:24:06 48° ENE 06:29:10 10° SE
